Time,TemperatureF,DewpointF,PressureIn,WindDirection,WindDirectionDegrees,WindSpeedMPH,WindSpeedGustMPH,Humidity,HourlyPrecipIn,Conditions,Clouds,dailyrainin,SoftwareType,DateUTC
2013-01-09 00:09:00,75.9,72.9,30.12,SSE,157,3.6,3.6,88,0.00,,,-99.99,Homeseer,2013-01-09 05:09:00,
2013-01-09 00:19:00,76.1,73.1,30.12,South,180,3.6,4.3,88,0.00,,,-99.99,Homeseer,2013-01-09 05:19:00,
2013-01-09 00:29:00,76.1,73.1,30.12,SE,135,2.9,2.9,88,0.00,,,-99.99,Homeseer,2013-01-09 05:29:00,
2013-01-09 00:39:00,76.1,73.4,30.12,SW,225,3.6,3.6,89,0.00,,,-99.99,Homeseer,2013-01-09 05:39:00,
2013-01-09 00:49:00,76.3,73.3,30.12,SSE,157,4.0,4.0,88,0.00,,,-99.99,Homeseer,2013-01-09 05:49:00,
2013-01-09 00:59:00,76.3,73.3,30.12,SSE,157,5.8,5.8,88,0.00,,,-99.99,Homeseer,2013-01-09 05:59:00,
2013-01-09 01:09:00,76.3,73.0,30.12,ESE,112,6.7,7.6,87,0.00,,,-99.99,Homeseer,2013-01-09 06:09:00,
2013-01-09 01:19:00,76.5,73.2,30.12,ESE,112,7.8,7.8,87,0.00,,,-99.99,Homeseer,2013-01-09 06:19:00,
2013-01-09 01:29:00,76.3,73.3,30.12,NNE,22,8.1,8.1,88,0.00,,,-99.99,Homeseer,2013-01-09 06:29:00,
2013-01-09 01:39:00,76.3,73.0,30.12,ESE,112,4.0,4.0,87,0.00,,,-99.99,Homeseer,2013-01-09 06:39:00,
2013-01-09 01:49:00,76.3,72.7,30.12,North,0,4.5,6.0,86,0.00,,,-99.99,Homeseer,2013-01-09 06:49:00,
2013-01-09 01:59:00,76.3,72.7,30.12,SSE,157,6.0,6.0,86,0.00,,,-99.99,Homeseer,2013-01-09 06:59:00,
2013-01-09 02:09:00,76.3,72.7,30.12,SE,135,5.6,5.6,86,0.00,,,-99.99,Homeseer,2013-01-09 07:09:00,
2013-01-09 02:19:00,76.3,72.7,30.12,ESE,112,3.4,3.4,86,0.00,,,-99.99,Homeseer,2013-01-09 07:19:00,
2013-01-09 02:29:00,76.3,72.7,30.12,SSE,157,4.9,8.7,86,0.00,,,-99.99,Homeseer,2013-01-09 07:29:00,
2013-01-09 02:39:00,76.3,73.3,30.12,South,180,5.6,5.6,88,0.00,,,-99.99,Homeseer,2013-01-09 07:39:00,
2013-01-09 02:49:00,76.1,72.8,30.12,South,180,6.9,6.9,87,0.00,,,-99.99,Homeseer,2013-01-09 07:49:00,
2013-01-09 02:59:00,76.3,73.0,30.12,SE,135,4.9,4.9,87,0.00,,,-99.99,Homeseer,2013-01-09 07:59:00,
2013-01-09 03:09:00,76.1,72.8,30.12,ESE,112,7.2,7.6,87,0.00,,,-99.99,Homeseer,2013-01-09 08:09:00,
2013-01-09 03:19:00,76.3,73.0,30.12,South,180,4.9,4.9,87,0.00,,,-99.99,Homeseer,2013-01-09 08:19:00,
2013-01-09 03:29:00,76.1,72.6,30.15,ESE,112,6.7,7.2,86,0.00,,,-99.99,Homeseer,2013-01-09 08:29:00,
2013-01-09 03:39:00,76.1,72.8,30.15,ESE,112,4.5,4.5,87,0.00,,,-99.99,Homeseer,2013-01-09 08:39:00,
2013-01-09 03:49:00,75.9,72.6,30.15,SSE,157,4.9,9.0,87,0.00,,,-99.99,Homeseer,2013-01-09 08:49:00,
2013-01-09 03:59:00,76.1,72.8,30.15,SSE,157,4.9,4.9,87,0.00,,,-99.99,Homeseer,2013-01-09 08:59:00,
2013-01-09 04:09:00,76.1,73.1,30.15,SSE,157,4.9,5.4,88,0.00,,,-99.99,Homeseer,2013-01-09 09:09:00,
2013-01-09 04:19:00,75.9,72.6,30.15,SE,135,5.4,6.5,87,0.00,,,-99.99,Homeseer,2013-01-09 09:19:00,
2013-01-09 04:29:00,75.9,72.1,30.15,SE,135,4.9,6.3,85,0.00,,,-99.99,Homeseer,2013-01-09 09:29:00,
2013-01-09 04:39:00,75.9,72.4,30.15,ESE,112,4.5,4.5,86,0.00,,,-99.99,Homeseer,2013-01-09 09:39:00,
2013-01-09 04:49:00,75.7,72.2,30.15,SE,135,3.8,7.6,86,0.00,,,-99.99,Homeseer,2013-01-09 09:49:00,
2013-01-09 04:59:00,75.7,71.9,30.15,ESE,112,5.6,7.6,85,0.00,,,-99.99,Homeseer,2013-01-09 09:59:00,
2013-01-09 05:09:00,75.7,71.9,30.15,SE,135,6.9,10.5,85,0.00,,,-99.99,Homeseer,2013-01-09 10:09:00,
2013-01-09 05:19:00,75.6,72.1,30.15,SE,135,7.2,8.1,86,0.00,,,-99.99,Homeseer,2013-01-09 10:19:00,
2013-01-09 05:29:00,75.7,71.9,30.15,SE,135,6.7,9.0,85,0.00,,,-99.99,Homeseer,2013-01-09 10:29:00,
2013-01-09 05:39:00,75.6,71.8,30.15,SSE,157,7.4,8.1,85,0.00,,,-99.99,Homeseer,2013-01-09 10:39:00,
2013-01-09 05:49:00,75.4,72.1,30.15,ESE,112,5.6,5.6,87,0.00,,,-99.99,Homeseer,2013-01-09 10:49:00,
2013-01-09 05:59:00,75.4,71.9,30.15,SE,135,5.4,5.4,86,0.00,,,-99.99,Homeseer,2013-01-09 10:59:00,
2013-01-09 06:09:00,75.4,71.9,30.15,East,90,6.9,8.7,86,0.00,,,-99.99,Homeseer,2013-01-09 11:09:00,
2013-01-09 06:19:00,75.4,71.9,30.15,ESE,112,5.6,5.8,86,0.00,,,-99.99,Homeseer,2013-01-09 11:19:00,
2013-01-09 06:29:00,75.4,71.9,30.15,ESE,112,6.3,6.3,86,0.00,,,-99.99,Homeseer,2013-01-09 11:29:00,
2013-01-09 06:39:00,75.4,72.1,30.15,SSE,157,4.7,8.1,87,0.00,,,-99.99,Homeseer,2013-01-09 11:39:00,
2013-01-09 06:49:00,75.4,71.6,30.15,SSE,157,5.6,5.6,85,0.00,,,-99.99,Homeseer,2013-01-09 11:49:00,
2013-01-09 06:59:00,75.4,71.3,30.18,SSE,157,4.9,5.8,84,0.00,,,-99.99,Homeseer,2013-01-09 11:59:00,
2013-01-09 07:09:00,75.4,71.3,30.18,North,0,5.6,5.6,84,0.00,,,-99.99,Homeseer,2013-01-09 12:09:00,
2013-01-09 07:19:00,75.4,71.3,30.18,North,0,5.4,5.4,84,0.00,,,-99.99,Homeseer,2013-01-09 12:19:00,
2013-01-09 07:29:00,75.4,71.0,30.18,SSE,157,6.3,8.7,83,0.00,,,-99.99,Homeseer,2013-01-09 12:29:00,
2013-01-09 07:39:00,75.6,70.7,30.18,ESE,112,5.4,5.4,81,0.00,,,-99.99,Homeseer,2013-01-09 12:39:00,
2013-01-09 07:49:00,75.7,71.3,30.18,SE,135,4.5,4.5,83,0.00,,,-99.99,Homeseer,2013-01-09 12:49:00,
2013-01-09 07:59:00,75.9,70.7,30.18,ESE,112,6.3,6.3,80,0.00,,,-99.99,Homeseer,2013-01-09 12:59:00,
2013-01-09 08:09:00,76.3,71.9,30.18,SSE,157,8.7,8.7,83,0.00,,,-99.99,Homeseer,2013-01-09 13:09:00,
2013-01-09 08:19:00,76.3,71.1,30.21,SSE,157,6.7,8.1,80,0.00,,,-99.99,Homeseer,2013-01-09 13:19:00,
2013-01-09 08:29:00,76.6,71.4,30.21,North,0,7.6,9.6,80,0.00,,,-99.99,Homeseer,2013-01-09 13:29:00,
2013-01-09 08:39:00,76.6,71.4,30.21,SSE,157,8.1,9.8,80,0.00,,,-99.99,Homeseer,2013-01-09 13:39:00,
2013-01-09 08:49:00,76.8,71.6,30.21,SE,135,7.2,7.2,80,0.00,,,-99.99,Homeseer,2013-01-09 13:49:00,
2013-01-09 08:59:00,77.2,71.4,30.21,South,180,9.0,9.0,78,0.00,,,-99.99,Homeseer,2013-01-09 13:59:00,
2013-01-09 09:09:00,77.5,71.9,30.21,SE,135,6.5,6.5,79,0.00,,,-99.99,Homeseer,2013-01-09 14:09:00,
2013-01-09 09:19:00,77.4,71.3,30.21,South,180,5.8,7.6,77,0.00,,,-99.99,Homeseer,2013-01-09 14:19:00,
2013-01-09 09:29:00,77.9,71.4,30.21,SSE,157,6.3,6.3,76,0.00,,,-99.99,Homeseer,2013-01-09 14:29:00,
2013-01-09 09:39:00,78.3,71.5,30.21,SE,135,6.0,6.0,75,0.00,,,-99.99,Homeseer,2013-01-09 14:39:00,
2013-01-09 09:49:00,78.3,70.9,30.24,ESE,112,6.7,6.7,73,0.00,,,-99.99,Homeseer,2013-01-09 14:49:00,
2013-01-09 09:59:00,79.0,71.6,30.24,North,0,5.8,8.1,73,0.00,,,-99.99,Homeseer,2013-01-09 14:59:00,
2013-01-09 10:09:00,78.8,70.7,30.24,South,180,7.2,7.2,71,0.00,,,-99.99,Homeseer,2013-01-09 15:09:00,
2013-01-09 10:19:00,79.0,71.6,30.21,ESE,112,6.9,6.9,73,0.00,,,-99.99,Homeseer,2013-01-09 15:19:00,
2013-01-09 10:29:00,79.2,71.4,30.21,SE,135,5.8,6.0,72,0.00,,,-99.99,Homeseer,2013-01-09 15:29:00,
2013-01-09 10:39:00,79.2,71.4,30.21,SSE,157,6.5,6.5,72,0.00,,,-99.99,Homeseer,2013-01-09 15:39:00,
2013-01-09 10:49:00,79.5,71.4,30.21,ESE,112,4.7,4.7,71,0.00,,,-99.99,Homeseer,2013-01-09 15:49:00,
2013-01-09 10:59:00,79.2,71.4,30.21,SE,135,6.5,6.5,72,0.00,,,-99.99,Homeseer,2013-01-09 15:59:00,
2013-01-09 11:09:00,79.2,71.4,30.21,East,90,10.1,10.1,72,0.00,,,-99.99,Homeseer,2013-01-09 16:09:00,
2013-01-09 11:19:00,79.3,71.8,30.21,North,0,7.6,7.6,73,0.00,,,-99.99,Homeseer,2013-01-09 16:19:00,
2013-01-09 11:29:00,79.3,71.8,30.21,North,0,9.8,9.8,73,0.00,,,-99.99,Homeseer,2013-01-09 16:29:00,
2013-01-09 11:39:00,79.3,71.8,30.21,South,180,9.6,12.5,73,0.00,,,-99.99,Homeseer,2013-01-09 16:39:00,
2013-01-09 11:49:00,79.5,72.0,30.18,SE,135,6.0,6.0,73,0.00,,,-99.99,Homeseer,2013-01-09 16:49:00,
2013-01-09 11:59:00,79.9,72.1,30.18,ESE,112,7.4,11.0,72,0.00,,,-99.99,Homeseer,2013-01-09 16:59:00,
2013-01-09 12:09:00,79.7,71.9,30.18,SE,135,6.9,7.8,72,0.00,,,-99.99,Homeseer,2013-01-09 17:09:00,
2013-01-09 12:19:00,79.7,71.6,30.18,SE,135,7.8,7.8,71,0.00,,,-99.99,Homeseer,2013-01-09 17:19:00,
2013-01-09 12:29:00,79.7,71.6,30.18,South,180,7.6,7.6,71,0.00,,,-99.99,Homeseer,2013-01-09 17:29:00,
2013-01-09 12:39:00,79.7,71.6,30.18,SSE,157,9.6,10.5,71,0.00,,,-99.99,Homeseer,2013-01-09 17:39:00,
2013-01-09 12:49:00,79.5,71.1,30.18,SE,135,10.3,10.3,70,0.00,,,-99.99,Homeseer,2013-01-09 17:49:00,
2013-01-09 12:59:00,79.7,71.6,30.18,SE,135,8.5,12.1,71,0.00,,,-99.99,Homeseer,2013-01-09 17:59:00,
2013-01-09 13:09:00,79.9,71.4,30.18,ESE,112,9.6,9.6,70,0.00,,,-99.99,Homeseer,2013-01-09 18:09:00,
2013-01-09 13:19:00,79.9,71.8,30.18,SE,135,7.2,7.2,71,0.00,,,-99.99,Homeseer,2013-01-09 18:19:00,
2013-01-09 13:29:00,79.9,71.4,30.18,SE,135,8.1,8.1,70,0.00,,,-99.99,Homeseer,2013-01-09 18:29:00,
2013-01-09 13:39:00,79.9,71.1,30.18,SE,135,9.8,12.3,69,0.00,,,-99.99,Homeseer,2013-01-09 18:39:00,
2013-01-09 13:49:00,80.1,71.6,30.18,North,0,6.9,6.9,70,0.00,,,-99.99,Homeseer,2013-01-09 18:49:00,
2013-01-09 13:59:00,80.2,71.7,30.18,SE,135,7.4,7.4,70,0.00,,,-99.99,Homeseer,2013-01-09 18:59:00,
2013-01-09 14:09:00,79.9,71.8,30.18,SSE,157,6.0,6.0,71,0.00,,,-99.99,Homeseer,2013-01-09 19:09:00,
2013-01-09 14:19:00,79.9,71.4,30.15,SSE,157,7.2,7.2,70,0.00,,,-99.99,Homeseer,2013-01-09 19:19:00,
2013-01-09 14:29:00,79.9,71.1,30.15,ESE,112,4.9,5.8,69,0.00,,,-99.99,Homeseer,2013-01-09 19:29:00,
2013-01-09 14:39:00,80.1,71.6,30.15,ESE,112,6.5,6.5,70,0.00,,,-99.99,Homeseer,2013-01-09 19:39:00,
2013-01-09 14:49:00,80.1,71.3,30.15,ESE,112,5.8,5.8,69,0.00,,,-99.99,Homeseer,2013-01-09 19:49:00,
2013-01-09 14:59:00,79.7,71.3,30.15,SSE,157,5.6,6.3,70,0.00,,,-99.99,Homeseer,2013-01-09 19:59:00,
2013-01-09 15:09:00,79.5,71.1,30.15,SSE,157,6.9,10.7,70,0.00,,,-99.99,Homeseer,2013-01-09 20:09:00,
2013-01-09 15:19:00,79.3,71.5,30.18,ESE,112,8.1,9.2,72,0.00,,,-99.99,Homeseer,2013-01-09 20:19:00,
2013-01-09 15:29:00,79.3,71.8,30.15,SE,135,6.9,6.9,73,0.00,,,-99.99,Homeseer,2013-01-09 20:29:00,
2013-01-09 15:39:00,78.8,72.0,30.15,SW,225,7.6,8.7,75,0.00,,,-99.99,Homeseer,2013-01-09 20:39:00,
2013-01-09 15:49:00,78.8,71.4,30.18,SSE,157,8.1,10.5,73,0.00,,,-99.99,Homeseer,2013-01-09 20:49:00,
2013-01-09 15:59:00,78.6,71.5,30.18,South,180,6.0,6.0,74,0.00,,,-99.99,Homeseer,2013-01-09 20:59:00,
2013-01-09 16:09:00,78.4,71.6,30.18,SSE,157,6.0,6.0,75,0.00,,,-99.99,Homeseer,2013-01-09 21:09:00,
2013-01-09 16:19:00,78.3,71.8,30.18,SSE,157,6.3,6.3,76,0.00,,,-99.99,Homeseer,2013-01-09 21:19:00,
2013-01-09 16:29:00,78.1,72.2,30.18,South,180,4.7,8.5,78,0.00,,,-99.99,Homeseer,2013-01-09 21:29:00,
2013-01-09 16:39:00,78.1,72.2,30.18,ESE,112,5.4,7.6,78,0.00,,,-99.99,Homeseer,2013-01-09 21:39:00,
2013-01-09 16:49:00,77.9,72.3,30.18,South,180,7.2,8.5,79,0.00,,,-99.99,Homeseer,2013-01-09 21:49:00,
2013-01-09 16:59:00,77.7,71.5,30.18,North,0,6.5,6.5,77,0.00,,,-99.99,Homeseer,2013-01-09 21:59:00,
2013-01-09 17:09:00,77.5,71.6,30.18,East,90,4.7,8.7,78,0.00,,,-99.99,Homeseer,2013-01-09 22:09:00,
2013-01-09 17:19:00,77.5,71.9,30.18,ESE,112,5.4,5.4,79,0.00,,,-99.99,Homeseer,2013-01-09 22:19:00,
2013-01-09 17:29:00,77.2,71.7,30.18,East,90,4.9,5.8,79,0.00,,,-99.99,Homeseer,2013-01-09 22:29:00,
2013-01-09 17:39:00,77.2,71.7,30.18,SE,135,4.7,5.6,79,0.00,,,-99.99,Homeseer,2013-01-09 22:39:00,
2013-01-09 17:49:00,77.0,71.5,30.18,ESE,112,6.3,6.3,79,0.00,,,-99.99,Homeseer,2013-01-09 22:49:00,
2013-01-09 17:59:00,77.0,71.5,30.18,SSE,157,6.7,11.0,79,0.00,,,-99.99,Homeseer,2013-01-09 22:59:00,
2013-01-09 18:09:00,77.0,71.7,30.18,ESE,112,4.7,7.6,80,0.00,,,-99.99,Homeseer,2013-01-09 23:09:00,
2013-01-09 18:19:00,76.8,71.6,30.18,SSE,157,4.7,7.2,80,0.00,,,-99.99,Homeseer,2013-01-09 23:19:00,
2013-01-09 18:29:00,76.8,71.6,30.21,SSE,157,4.7,4.7,80,0.00,,,-99.99,Homeseer,2013-01-09 23:29:00,
2013-01-09 18:39:00,76.8,71.6,30.21,SSE,157,4.5,4.5,80,0.00,,,-99.99,Homeseer,2013-01-09 23:39:00,
2013-01-09 18:49:00,76.8,71.0,30.21,ESE,112,7.2,7.2,78,0.00,,,-99.99,Homeseer,2013-01-09 23:49:00,
2013-01-09 18:59:00,76.8,71.0,30.21,SSE,157,6.0,10.3,78,0.00,,,-99.99,Homeseer,2013-01-09 23:59:00,
2013-01-09 19:09:00,76.8,70.7,30.21,SSE,157,6.0,6.0,77,0.00,,,-99.99,Homeseer,2013-01-10 00:09:00,
2013-01-09 19:19:00,76.8,71.0,30.21,SSE,157,6.0,6.0,78,0.00,,,-99.99,Homeseer,2013-01-10 00:19:00,
2013-01-09 19:29:00,76.8,71.0,30.21,North,0,5.4,5.4,78,0.00,,,-99.99,Homeseer,2013-01-10 00:29:00,
2013-01-09 19:39:00,76.8,70.4,30.21,SE,135,5.4,5.8,76,0.00,,,-99.99,Homeseer,2013-01-10 00:39:00,
2013-01-09 19:49:00,76.8,70.1,30.21,SE,135,6.0,6.0,75,0.00,,,-99.99,Homeseer,2013-01-10 00:49:00,
2013-01-09 19:59:00,76.8,71.3,30.21,ESE,112,8.7,9.6,79,0.00,,,-99.99,Homeseer,2013-01-10 00:59:00,
2013-01-09 20:09:00,76.8,71.3,30.21,SSE,157,6.7,6.7,79,0.00,,,-99.99,Homeseer,2013-01-10 01:09:00,
2013-01-09 20:19:00,76.8,71.3,30.21,SE,135,7.6,7.6,79,0.00,,,-99.99,Homeseer,2013-01-10 01:19:00,
2013-01-09 20:29:00,76.8,71.3,30.21,SSE,157,4.5,7.4,79,0.00,,,-99.99,Homeseer,2013-01-10 01:29:00,
2013-01-09 20:39:00,76.6,71.4,30.21,South,180,7.6,7.6,80,0.00,,,-99.99,Homeseer,2013-01-10 01:39:00,
2013-01-09 20:49:00,76.6,71.1,30.21,North,0,7.2,7.2,79,0.00,,,-99.99,Homeseer,2013-01-10 01:49:00,
2013-01-09 20:59:00,76.6,71.1,30.21,SSE,157,4.5,4.5,79,0.00,,,-99.99,Homeseer,2013-01-10 01:59:00,
2013-01-09 21:09:00,76.6,70.8,30.21,SSE,157,5.4,6.0,78,0.00,,,-99.99,Homeseer,2013-01-10 02:09:00,
2013-01-09 21:19:00,76.6,71.1,30.21,SSE,157,10.1,17.0,79,0.00,,,-99.99,Homeseer,2013-01-10 02:19:00,
2013-01-09 21:29:00,76.6,70.8,30.24,SSE,157,4.5,4.5,78,0.00,,,-99.99,Homeseer,2013-01-10 02:29:00,
2013-01-09 21:39:00,76.6,71.1,30.24,SE,135,7.2,9.6,79,0.00,,,-99.99,Homeseer,2013-01-10 02:39:00,
2013-01-09 21:49:00,76.6,71.4,30.24,ESE,112,7.6,7.6,80,0.00,,,-99.99,Homeseer,2013-01-10 02:49:00,
2013-01-09 21:59:00,76.5,70.7,30.24,ESE,112,5.8,7.4,78,0.00,,,-99.99,Homeseer,2013-01-10 02:59:00,
2013-01-09 22:09:00,76.6,71.1,30.24,North,0,10.1,10.1,79,0.00,,,-99.99,Homeseer,2013-01-10 03:09:00,
2013-01-09 22:19:00,76.6,69.9,30.24,ESE,112,10.7,18.6,75,0.00,,,-99.99,Homeseer,2013-01-10 03:19:00,
2013-01-09 22:29:00,76.6,70.2,30.24,ESE,112,7.2,9.8,76,0.00,,,-99.99,Homeseer,2013-01-10 03:29:00,
2013-01-09 22:39:00,76.6,69.9,30.24,North,0,10.1,10.1,75,0.00,,,-99.99,Homeseer,2013-01-10 03:39:00,
2013-01-09 22:49:00,76.6,70.2,30.24,SSE,157,9.6,9.6,76,0.00,,,-99.99,Homeseer,2013-01-10 03:49:00,
2013-01-09 22:59:00,76.5,68.2,30.24,SSE,157,9.6,12.8,70,0.00,,,-99.99,Homeseer,2013-01-10 03:59:00,
2013-01-09 23:09:00,76.6,68.3,30.24,WSW,247,9.8,14.1,70,0.00,,,-99.99,Homeseer,2013-01-10 04:09:00,
2013-01-09 23:19:00,76.5,69.5,30.24,SE,135,9.6,9.6,74,0.00,,,-99.99,Homeseer,2013-01-10 04:19:00,
2013-01-09 23:29:00,76.6,70.5,30.24,ESE,112,8.7,10.5,77,0.00,,,-99.99,Homeseer,2013-01-10 04:29:00,
2013-01-09 23:39:00,76.5,69.8,30.24,SSE,157,6.9,8.5,75,0.00,,,-99.99,Homeseer,2013-01-10 04:39:00,
2013-01-09 23:49:00,76.5,68.9,30.24,ESE,112,10.5,12.3,72,0.00,,,-99.99,Homeseer,2013-01-10 04:49:00,
2013-01-09 23:59:00,76.3,69.9,30.21,North,0,11.0,15.7,76,0.00,,,-99.99,Homeseer,2013-01-10 04:59:00,